Change the Weather History Date:

Friday, June 8, 2012

  Actual Average Record
Temperature  
Mean Temperature 72 °F -  
Max Temperature 84 °F 78 °F 95 °F (2011)
Min Temperature 61 °F 59 °F 39 °F (1949)
Cooling Degree Days 8    
Growing Degree Days 22 (Base 50)    
Moisture  
Dew Point 48 °F    
Average Humidity 43    
Maximum Humidity 67    
Minimum Humidity 27    
Precipitation  
Precipitation 0.00 in - - ()
Sea Level Pressure  
Sea Level Pressure 29.98 in    
Wind  
Wind Speed 5 mph (West)    
Max Wind Speed 14 mph    
Max Gust Speed 22 mph    
Visibility 10 miles    
Events      
Averages and records for this station are not official NWS values.
T = Trace of Precipitation, MM = Missing Value Source: NWS Daily Summary

Daily Weather History Graph

Daily Weather History Graph

Search for Another Location

Airport or City:

Trip Planner

Search our weather history database for the weather conditions in past years. The results will help you decide how hot, cold, wet, or windy it might be!

Date:

Astronomy

Jun. 08, 2012 Rise Set
Actual Time 5:55 AM EDT 9:07 PM EDT
Civil Twilight 5:20 AM EDT 9:42 PM EDT
Nautical Twilight 4:36 AM EDT 10:26 PM EDT
Astronomical Twilight 3:42 AM EDT 11:20 PM EDT
Moon No Moon Rise 10:37 AM EDT (6/8)
Length of Visible Light 16h 21m
Length of Day
15h 12m
Waning Gibbous, 77% of the Moon is Illuminated
Jun 8
Waning Gibbous
Jun 11
Last Quarter
Jun 19
New
Jun 26
First Quarter
Jul 3
Full

Hourly Weather History & Observations

Time (EDT) Temp. Dew Point Humidity Pressure Visibility Wind Dir Wind Speed Gust Speed Precip Events Conditions
12:53 AM 63.0 °F 52.0 °F 67% 30.02 in 10.0 mi Calm Calm - N/A   Clear
1:53 AM 66.0 °F 51.1 °F 59% 30.02 in 10.0 mi West 3.5 mph - N/A   Clear
2:53 AM 64.9 °F 50.0 °F 58% 30.00 in 10.0 mi WNW 3.5 mph - N/A   Clear
3:53 AM 63.0 °F 50.0 °F 63% 30.01 in 10.0 mi WNW 3.5 mph - N/A   Clear
4:53 AM 62.6 °F 50.0 °F 63% 30.03 in 10.0 mi WNW 3.5 mph - N/A   Clear
5:53 AM 61.0 °F 50.0 °F 67% 30.02 in 10.0 mi WNW 4.6 mph - N/A   Clear
6:53 AM 61.0 °F 50.0 °F 67% 30.03 in 10.0 mi WNW 4.6 mph - N/A   Clear
7:53 AM 64.9 °F 51.1 °F 61% 30.04 in 10.0 mi WNW 3.5 mph - N/A   Clear
8:53 AM 70.0 °F 51.1 °F 51% 30.05 in 10.0 mi NW 4.6 mph - N/A   Clear
9:53 AM 75.0 °F 45.0 °F 34% 30.05 in 10.0 mi WNW 6.9 mph - N/A   Clear
10:53 AM 77.0 °F 43.0 °F 30% 30.04 in 10.0 mi West 8.1 mph - N/A   Clear
11:53 AM 79.0 °F 44.1 °F 29% 30.03 in 10.0 mi West 12.7 mph - N/A   Partly Cloudy
12:53 PM 79.0 °F 45.0 °F 30% 30.01 in 10.0 mi WNW 9.2 mph - N/A   Overcast
1:53 PM 81.0 °F 46.9 °F 30% 29.99 in 10.0 mi West 6.9 mph - N/A   Clear
2:53 PM 82.0 °F 46.9 °F 29% 29.97 in 10.0 mi West 4.6 mph 18.4 mph N/A   Clear
3:53 PM 82.4 °F 48.2 °F 30% 29.96 in 10.0 mi West 9.2 mph - N/A   Mostly Cloudy
4:53 PM 84.9 °F 46.9 °F 27% 29.93 in 10.0 mi NW 9.2 mph - N/A   Scattered Clouds
5:53 PM 84.0 °F 46.9 °F 27% 29.93 in 10.0 mi West 11.5 mph 21.9 mph N/A   Partly Cloudy
6:53 PM 82.9 °F 46.9 °F 28% 29.92 in 10.0 mi West 13.8 mph - N/A   Clear
7:53 PM 82.0 °F 46.9 °F 29% 29.91 in 10.0 mi West 11.5 mph 20.7 mph N/A   Clear
8:53 PM 80.1 °F 46.9 °F 31% 29.91 in 10.0 mi West 6.9 mph - N/A   Clear
9:53 PM 75.9 °F 48.9 °F 38% 29.91 in 10.0 mi WSW 3.5 mph - N/A   Clear
10:53 PM 75.0 °F 50.0 °F 41% 29.92 in 10.0 mi West 5.8 mph - N/A   Clear
11:53 PM 73.0 °F 51.1 °F 46% 29.91 in 10.0 mi WSW 4.6 mph - N/A   Clear